Regional Weather Roundup
Issued by NWS

Home | Current Version | Previous Version | Text Only | Print | Product List | Glossary Off
Versions: 1 2 3 4 5 6 7 8 9 10 11 12 13 14 15 16 17 18 19 20 21 22 23 24 25 26 27 28 29 30 31 32 33 34 35 36 37 38 39 40 41 42 43 44 45 46 47 48 49 50

000
ASUS43 KMPX 102010
RWRMN
WEATHER ROUNDUP FOR MINNESOTA
NATIONAL WEATHER SERVICE TWIN CITIES/CHANHASSEN MN
200 PM CST SUN DEC 10 2017


NOTE: "FAIR" INDICATES FEW OR NO CLOUDS BELOW 12,000 FEET WITH NO
SIGNIFICANT WEATHER AND/OR OBSTRUCTIONS TO VISIBILITY. N/A MEANS
CURRENT SKY AND/OR WEATHER CONDITIONS ARE NOT AVAILABLE.

MNZ060>063-068>070-102100-
   Twin Cities Metro

CITY           SKY/WX    TMP DP  RH WIND       PRES   REMARKS
TWIN CITIES    CLOUDY    29  22  75 NW12      30.01F WCI  19
ST PAUL        CLOUDY    29  21  72 NW8       30.03F WCI  21
CRYSTAL        CLOUDY    28  18  66 W9        30.00F WCI  19
BLAINE         CLOUDY    30  21  69 NW9       30.00F WCI  22
LAKEVILLE      CLOUDY    28  23  80 W6        30.00F WCI  22
EDEN PRAIRIE   CLOUDY    29  21  72 NW9       30.00F WCI  20
SOUTH ST PAUL  CLOUDY    30  21  69 NW6       30.01F WCI  24
LAKE ELMO      CLOUDY    30  23  74 NW7       30.01S WCI  23
$$
MNZ001>005-007-008-013>017-022>024-027-028-102100-
   Northwest Minnesota

CITY           SKY/WX    TMP DP  RH WIND       PRES   REMARKS
BEMIDJI        PTSUNNY   22  16  76 CALM      29.99F
HALLOCK        CLOUDY    23  19  86 CALM      30.02F
ROSEAU         MOSUNNY   21  16  79 NW3       30.01S
WARROAD        PTSUNNY   18  14  86 S3        30.01S
THIEF RVR FALL CLOUDY    21  17  84 SW3       30.02F
CROOKSTON      CLOUDY    23  19  86 CALM      30.04F
FOSSTON        CLOUDY    21  16  79 SW5       30.02S WCI  15
DETROIT LAKES  CLOUDY    23  21  93 NW7       30.01F WCI  15
MOORHEAD       CLOUDY    25  19  80 CALM      30.04F
PARK RAPIDS    MOSUNNY   26  18  71 NW6       29.98S WCI  19
MAHNOMEN       CLOUDY    22  18  84 W3        30.01S
$$
MNZ006-009>011-018-025>026-102100-
   North Central Minnesota

CITY           SKY/WX    TMP DP  RH WIND       PRES   REMARKS
BAUDETTE       CLOUDY    18  13  80 CALM      30.00F
FLAG ISLAND    FLURRIES  18  10  73 N5        30.00S WCI  11
INTL FALLS     CLOUDY    17   9  70 NW5       29.99F HAZE    WCI  10
WASKISH        CLOUDY    19  16  86 SW3       30.00S
BIG FORK       CLOUDY    21  14  73 N3        29.98S
GRAND RAPIDS   CLOUDY    21  15  78 NW7       29.99F WCI  12
ORR            FLURRIES  18   9  68 NW6       29.96S WCI   9
COOK           PTSUNNY   18  10  73 NW6       29.99R WCI   9
WALKER         MOCLDY    24  16  73 NW6       29.99R WCI  17
$$
MNZ012-019>021-037-102100-
   Northeast Minnesota

CITY           SKY/WX    TMP DP  RH WIND       PRES   REMARKS
DULUTH         PTSUNNY   20  13  74 NW13      29.95R WCI   7
ELY            PTSUNNY   16   7  67 N5        29.96R WCI   9
HIBBING        LGT SNOW  17  12  80 NW9       29.98R WCI   6
EVELETH        MOSUNNY   18   7  62 N7        29.98S WCI   8
DULUTH HARBOR  PTSUNNY   25  16  68 NW8       30.02R WCI  16
TWO HARBORS    SUNNY     28  12  50 NW5       29.96R WCI  23
G MARAIS ARPRT SUNNY     12   1  62 NW7       29.89R WCI   2
$$
MNZ029>031-032-039>041-046>048-054>057-064-102100-
   West Central Minnesota

CITY           SKY/WX    TMP DP  RH WIND       PRES   REMARKS
FERGUS FALLS   SUNNY     27  19  74 N8        30.05F WCI  18
MORRIS         CLOUDY    32  21  64 NW10      30.02F WCI  24
ALEXANDRIA     CLOUDY    29  20  69 W9        30.01R WCI  20
ELBOW LAKE     PTSUNNY   28  20  74 W10       30.02F WCI  18
WADENA         CLOUDY    27  18  69 W8        30.00S WCI  18
GLENWOOD       CLOUDY    28  21  74 CALM      30.00F
BENSON         SUNNY     34  23  64 N13       30.04S WCI  25
ORTONVILLE     CLOUDY    36  23  60 NW8       30.02F
MADISON        MOSUNNY   37  27  65 NW12      30.03F
WILLMAR        FAIR      34  23  64 NW12      30.03R WCI  25
$$
MNZ033>034-036-042>043-049>051-058-059-102100-
   Central Minnesota

CITY           SKY/WX    TMP DP  RH WIND       PRES   REMARKS
ST CLOUD       CLOUDY    30  21  69 NW8       30.00S WCI  22
SAUK CENTRE    MOCLDY    29  21  70 NW9       30.01S WCI  21
PAYNESVILLE    CLOUDY    30  23  75 NW8       30.01F WCI  22
AITKIN         CLOUDY    25  16  68 W3        29.98S
PINE RIVER     MOSUNNY   25  18  74 NW3       30.02S
BRAINERD       CLOUDY    28  17  63 W8        29.98F WCI  20
STAPLES        MOSUNNY   27  18  69 W7        29.99S WCI  19
LONG PRAIRIE   PTSUNNY   28  19  69 W7        30.01R WCI  21
LITTLE FALLS   CLOUDY    28  14  54 NW3       30.00S
LITCHFIELD     SUNNY     30  25  80 NW7       30.01F WCI  23
BUFFALO        CLOUDY    30  21  68 NW6       30.02F WCI  24
MAPLE LAKE     CLOUDY    32  24  73 NW6       30.02R WCI  26
HUTCHINSON     MOSUNNY   32  24  72 NW9       30.02S WCI  24
$$
MNZ037-044-045-052-053-102100-
   East Central Minnesota

CITY           SKY/WX    TMP DP  RH WIND       PRES   REMARKS
PRINCETON      CLOUDY    30  21  69 W7        30.00S WCI  23
MORA           CLOUDY    27  19  74 NW8       30.01S WCI  18
CAMBRIDGE      CLOUDY    30  19  64 W9        30.00S WCI  22
RUSH CITY      CLOUDY    28  19  67 NW6       30.00R WCI  22
MOOSE LAKE     CLOUDY    27  18  69 N7        29.97S WCI  19
HINCKLEY       CLOUDY    28  19  69 NW5       29.99S WCI  23
CLOQUET        CLOUDY    21  12  68 NW8       29.96F WCI  12
MCGREGOR       CLOUDY    27  18  69 NW6       29.98F WCI  20
$$
MNZ071>073-080-081-089-090-097-098-102100-
   Southwest Minnesota

CITY           SKY/WX    TMP DP  RH WIND       PRES   REMARKS
MONTEVIDEO     CLOUDY    34  25  69 N8        30.03F WCI  27
GRANITE FALLS  MOSUNNY   37  26  65 NW14      30.05F
CANBY          SUNNY     41  29  61 NW7       30.04F
MARSHALL       SUNNY     38  26  62 NW10      30.03F
REDWOOD FALLS  SUNNY     36  22  56 NW10      30.03S
OLIVIA         SUNNY     34  27  75 NW13      30.01F WCI  25
PIPESTONE      PTSUNNY   37  27  65 NW8       30.02F
WINDOM         SUNNY     37  21  52 NW14      30.02R
WORTHINGTON    SUNNY     38  27  64 NW16      30.04R
JACKSON        SUNNY     36  27  69 MISG      30.03R
TRACY          MOSUNNY   38  28  67 NW10      30.02F
$$
MNZ065>067-074>077-082>085-091>093-102100-
   South Central Minnesota

CITY           SKY/WX    TMP DP  RH WIND       PRES   REMARKS
MANKATO        CLOUDY    30  23  75 N10       30.02F WCI  21
NEW ULM        SUNNY     32  23  69 NW14G22   30.04R WCI  22
ST JAMES       SUNNY     34  25  69 NW18      30.04R WCI  23
FAIRMONT       SUNNY     35  24  64 NW16      30.02S WCI  25
GLENCOE        PTSUNNY   31  24  75 NW7       30.02S WCI  24
FARIBAULT      CLOUDY    28  23  80 NW7       30.02S WCI  21
WASECA         CLOUDY    30  25  80 NW9       30.02F WCI  22
ALBERT LEA     CLOUDY    30  21  69 NW7       30.00S WCI  23
$$
MNZ078>079-086>088-094>096-102100-
   Southeast Minnesota

CITY           SKY/WX    TMP DP  RH WIND       PRES   REMARKS
ROCHESTER      CLOUDY    28  21  75 NW16      29.99R WCI  16
RED WING       CLOUDY    30  19  64 NW8       30.00F WCI  23
STANTON        CLOUDY    30  23  74 NW10      30.00S WCI  21
DODGE CENTER   CLOUDY    28  21  74 NW9       29.99R WCI  20
WINONA         CLOUDY    30  21  69 NW9G17    30.02R WCI  22
AUSTIN         CLOUDY    30  21  69 NW10      29.99S WCI  21
PRESTON        CLOUDY    27  20  75 NW13      29.99R WCI  16
$$
ABBREVIATIONS USED IN REMARKS
   TC - TEMPERATURES IN CELSIUS
  WCI - WIND CHILL INDEX
   HX - HEAT INDEX
  VSB - VISIBILITY
$$



USA.gov is the U.S. government's official web portal to all federal, state and local government web resources and services.